Время (UTC), дата Ветер
(°,м/с) 
Видим.   Явления Облачность Т
(°С)
Тd
(°С)
f(%) Тe
(°С)
Pmin
(гПа)
dP
(гПа)
Po
(мм)
O2
(г/м3)
Тmin Tmax R s Состояние
почвы
00 01.12.10 310 (СЗ) 4{11}  4000 м  снег  10/10 300 м 
[Ns]
-18 -22.1 70 -23  993.6  3.6  733  318           
03 01.12.10 320 (СЗ) 3{10}  4000 м  снег  10/0 средняя 
[As op]
-19.8 -23.9 70 -24  996.7  736  321           
06 01.12.10 330 (СЗ) >10 км  слаб. снег  10/0 средняя 
[As op]
-20.1 -24.2 70 -23  1000.2  3.3  738  323  -20.1       
09 01.12.10 320 (СЗ) >10 км  {снег}  10/0 средняя, верхняя 
[Ac cast|Ci fib]
-20.3 -25.2 65 -25  1003  2.8  740  324           
12 01.12.10 320 (СЗ) >10 км  {снег}  10/3 600 м верхняя 
[Sc|Ci fib]
-21.4 -25.4 70 -26  1006.1  743  326           
15 01.12.10 330 (СЗ) 10 км    ясно 
-21.9 -25.9 70 -26  1009.5  3.3  745  328           
18 01.12.10 290 (З) 10 км  слаб. снег  10/0 средняя 
[As trans]
-22.3 -25.5 75 -25  1011.2  1.6  746  329  -19.8    0.0     
21 01.12.10 290 (З) 10 км  слаб. снег  10/0 средняя 
[As trans]
-22.3 -25.5 75 -25  1013.7  2.5  748  330           
03 02.12.10 330 (СЗ) 10 км  ледяные иглы{снег}  ясно 
-23.7 -27.6 70 -27  1018.6  2.6  752  333           
06 02.12.10 340 (С) >10 км  {снег}  ясно 
-24.9 -28.8 70 -28  1023  4.2  755  336  -24.9    0.5     
09 02.12.10 310 (СЗ) >10 км    ясно 
-23 -27 70 -26  1026.3  3.4  757  335           
12 02.12.10 290 (З) >10 км    ясно 
-21.9 -26.7 65 -25  1029.3  760  335           
15 02.12.10 310 (СЗ) 10 км    ясно 
-22.7 -26.7 70 -26  1031.9  2.5  761  336           
18 02.12.10 280 (З) 10 км    ясно 
-22.3 -25.5 75 -23  1033.8  1.9  763  337    -21.9  0.0     
21 02.12.10 тихо ()   10 км    1/0 средняя 
[Ac cast]
-23.5 -26.7 75 -24  1035.3  1.4  764  339           
00 03.12.10 240 (ЮЗ) 10 км    9/9 600 м 
[Sc]
-20.4 -22.9 80 -23  1036.1  0.9  765  335           
03 03.12.10 240 (ЮЗ) 10 км    10/10 600 м 
[Sc]
-17.5 -21.7 70 -18  1036.3  0.5  765  331           
06 03.12.10 240 (ЮЗ) 10 км    9/0 средняя 
[Ac trans]
-15.9 -21 65 -18  1036.7  0.5  765  329  -24.3         
09 03.12.10 270 (З) >10 км    3/0 средняя 
[Ac cast]
-14.3 -20.4 60 -16  1038.5  1.8  767  328           
12 03.12.10 240 (ЮЗ) >10 км    8/0 средняя, верхняя 
[Ac trans|Ci fib]
-14.7 -20.7 60 -18  1039.5  0.9  767  328           
15 03.12.10 140 (ЮВ) 10 км    8/0 верхняя 
[Ci fib]
-17.9 -21.2 75 -20  1039.4  -0.2  767  332           
18 03.12.10 160 (Ю) 10 км    3/0 верхняя 
[Cc]
-17.9 -20.5 80 -18  1038.9  -0.5  767  332    -14.1       
21 03.12.10 140 (ЮВ) 10 км    8/8 1000 м 
[Sc]
-16.7 -19.3 80 -17  1038.6  -0.3  767  331           
00 04.12.10 130 (ЮВ) 10 км    3/0 средняя 
[Ac trans]
-15.8 -17.7 85 -18  1036.7  -1.8  765  329           
03 04.12.10 100 (В) 10 км    10/10 600 м 
[Sc]
-13.4 -16.1 80 -17  1035.6  -1  765  325           
06 04.12.10 140 (ЮВ) >10 км    10/0 средняя 
[As op]
-12.1 -14.8 80 -15  1034.6  -0.8  764  323  -18.2         
09 04.12.10 150 (ЮВ) 10 км  слаб. снег  10/0 средняя 
[As op]
-11.1 -13.9 80 -14  1032.2  -2.4  762  321           
12 04.12.10 130 (ЮВ) 10 км  снег  10/0 средняя 
[As op]
-9.4 -11.9 82 -14  1026.1  -5.9  758  317           
15 04.12.10 140 (ЮВ) 10 км  снег{дождь}  10/10 300 м 
[Ns]
-7.6 -8.9 90 -9  1022.8  -3.1  755  314          влажная 
18 04.12.10 170 (Ю) 4000 м  ледяной дождь (гололёд){снег} [диам. гололёда 1 мм]  10/10 300 м 
[Frnb|Ns]
-4.9 -6.2 91 -6  1020.4  -2.2  754  310    -7.6     
21 04.12.10 180 (Ю) 10 км  слаб. дождь{снег} [диам. гололёда 2 мм]  10/10 300 м 
[Frnb|Ns]
-2.4 -3.6 91 -3  1019.2  -1  753  307           
00 05.12.10 тихо ()   10 км  слаб. снег{дождь} [диам. гололёда 3 мм]  10/10 300 м 
[Ns]
-1.6 -2.7 92 -2  1019.1  -0.1  753  306           
03 05.12.10 190 (Ю) 4000 м  слаб. дождь{снег} [диам. гололёда 4 мм]  10/10 300 м 
[Ns]
-1.2 -1.9 95 -1  1018.6  -0.5  753  305           
06 05.12.10 тихо ()   4000 м  слаб. морось{снег, дождь} [диам. гололёда 5 мм]  10/10 300 м 
[Frnb]
-1 -1.2 98 -1  1018.5  -0.1  753  304  +7.6       
09 05.12.10 160 (Ю) 4000 м  слаб. снег{морось} [диам. гололёда 5 мм]  10/10 300 м 
[Ns]
-0.5 -0.5 100 1016.5  -1.8  751  303           
12 05.12.10 170 (Ю) 1000 м  сильн. снег{морось} [диам. гололёда 5 мм]  10/10 300 м 
[Ns]
-0.8 -0.8 100 1015.7  -0.9  751  303           
15 05.12.10 160 (Ю) 4000 м  слаб. снег [диам. гололёда 5 мм]  10/10 300 м 
[Ns]
-1.7 -1.7 100 -1  1015.4  -0.3  750  304           
18 05.12.10 160 (Ю) 4000 м  слаб. снег [диам. сложн. отлож. 12 мм]  10/10 300 м 
[Ns]
-2.4 -3.3 94 -2  1016  0.6  751  306    -0.5  17     
21 05.12.10 150 (ЮВ) 4000 м  слаб. снег [диам. сложн. отлож. 13 мм]  10/10 300 м 
[Ns]
-2.6 -3.6 93 -2  1015.8  -0.4  750  306           
00 06.12.10 тихо ()   10 км  {снег} [диам. сложн. отлож. 13 мм]  10/10 300 м 
[Ns]
-2.8 -4.1 91 -3  1014.8  -1  750  306           
03 06.12.10 040 (СВ) 2000 м  снег [диам. сложн. отлож. 13 мм]  10/10 300 м 
[Ns]
-3.3 -4.7 90 -4  1014  -0.8  749  306           
06 06.12.10 тихо ()   1000 м  сильн. снег [диам. гололёда 3 мм]  10/10 300 м 
[Ns]
-2.6 -3.8 91 -3  1013.1  -0.9  748  305  -3.3       
09 06.12.10 060 (СВ) 1000 м  сильн. снег [диам. гололёда 3 мм]  10/10 300 м 
[Ns]
-2.9 -3.9 93 -4  1011.8  -1.2  748  305           
12 06.12.10 030 (СВ) 4000 м  снег [диам. гололёда 4 мм]  10/10 300 м 
[Ns]
-3.3 -4 95 -3  1010.3  -1.1  747  305           
15 06.12.10 350 (С) 4000 м  слаб. снег [диам. гололёда 3 мм]  10/10 300 м 
[Ns]
-4.7 -6 91 -6  1010.9  0.1  747  307           
18 06.12.10 330 (СЗ) 10 км  {снег} [диам. гололёда 3 мм]  10/10 600 м 
[Sc]
-5.9 -7.4 89 -7  1012.1  1.2  747  308      12     
21 06.12.10 340 (С) 10 км  [диам. гололёда 3 мм]  10/10 600 м 
[Sc]
-7.2 -9.3 85 -7  1015.5  3.2  750  311           
00 07.12.10 290 (З) 10 км  [диам. гололёда 3 мм]  ясно 
-10.4 -11.7 90 -12  1018  2.3  752  316           
03 07.12.10 280 (З) 10 км  [диам. гололёда 3 мм]  3/0 средняя 
[Ac lent]
-12.2 -13.5 90 -14  1020.9  2.7  754  319           
06 07.12.10 270 (З) 10 км  [диам. гололёда 3 мм]  ясно 
-14.3 -15.6 90 -14  1021.9  0.9  755  322  -14.3    0.0     
09 07.12.10 тихо ()   10 км  [диам. гололёда 3 мм]  6/0 верхняя 
[Ci fib]
-11.2 -12.5 90 -11  1022.2  0.5  755  318           
12 07.12.10 170 (Ю) 10 км  [диам. гололёда 3 мм]  10/0 верхняя 
[Cs]
-13.4 -15.4 85 -13  1022.1  -0.2  755  321           
15 07.12.10 150 (ЮВ) 10 км  [диам. гололёда 3 мм]  10/0 средняя 
[As op]
-13 -15 85 -15  1021.9  -0.2  755  321           
18 07.12.10 160 (Ю) 10 км  слаб. снег [диам. гололёда 3 мм]  10/0 средняя 
[As op]
-11.4 -13.4 85 -13  1021.4  -0.4  754  318    -11       
21 07.12.10 150 (ЮВ) 10 км  слаб. снег [диам. гололёда 3 мм]  10/0 средняя 
[As op]
-9.4 -11 88 -11  1021.2  -0.1  754  316           
00 08.12.10 160 (Ю) 10 км  слаб. снег [диам. гололёда 3 мм]  10/0 средняя 
[As op]
-8.6 -10.1 89 -8  1021.4  0.2  754  315           
03 08.12.10 110 (В) 10 км  слаб. снег [диам. гололёда 3 мм]  10/0 средняя 
[As op]
-7.6 -8.9 90 -7  1021  -0.3  754  313           
06 08.12.10 150 (ЮВ) 4000 м  слаб. снег [диам. гололёда 3 мм]  10/10 300 м 
[Ns]
-5.8 -6.9 92 -7  1020  -0.8  754  311  -13    0.8     
09 08.12.10 170 (Ю) 2000 м  снег [диам. гололёда 3 мм]  10/10 300 м 
[Ns]
-4 -4.9 93 -6  1018.5  -1.4  752  308           
12 08.12.10 170 (Ю) 1000 м  сильн. снег [диам. гололёда 3 мм]  10/10 100 м 
[Ns]
-3.3 -4 95 -4  1016.8  -1.7  751  307           
15 08.12.10 130 (ЮВ) 4000 м  слаб. снег [диам. гололёда 3 мм]  10/10 200 м 
[Ns]
-3.5 -4.9 90 -5  1016.2  -0.6  751  307           
18 08.12.10 190 (Ю) 2000 м  снег [диам. гололёда 3 мм]  10/10 200 м 
[Ns]
-3.6 -4.7 92 -5  1014.9  -1.3  750  307    -3.1     
21 08.12.10 190 (Ю) 2000 м  снег [диам. гололёда 3 мм]  10/10 200 м 
[Ns]
-3.4 -4.5 92 -3  1014.3  -0.6  749  306           
00 09.12.10 190 (Ю) 10 км  в посл. час снег [диам. гололёда 3 мм]  10/10 200 м 
[St]
-3 -4 93 -3  1014.5  0.2  749  306           
03 09.12.10 240 (ЮЗ) 10 км  [диам. гололёда 3 мм]  10/10 200 м 
[St]
-2.2 -3.1 93 -2  1015.1  0.8  750  305           
06 09.12.10 260 (З) 4000 м  дымка [диам. гололёда 3 мм]  10/10 200 м 
[St]
-2 -2.9 94 -1  1016.4  1.3  751  305  -3.6       
09 09.12.10 тихо ()   >10 км  слаб. снег [диам. гололёда 3 мм]  10/10 300 м 
[St]
-1.8 -3.6 87 -2  1016.8  0.4  751  305           
12 09.12.10 110 (В) 4000 м  снежные зёрна [диам. гололёда 3 мм]  10/10 300 м 
[St]
-2.2 -3.4 91 -2  1017.9  752  306           
15 09.12.10 140 (ЮВ) 2000 м  дымка{снег} [диам. гололёда 3 мм]  10/10 200 м 
[St]
-2.2 -2.8 96 -2  1017.6  -0.3  752  306           
18 09.12.10 160 (Ю) 10 км  слаб. снег [диам. гололёда 3 мм]  10/10 200 м 
[Frnb]
-2.3 -3.2 94 -4  1016.2  -1.3  751  305    -1.8  0.0     
21 09.12.10 160 (Ю) 10 км  {снег} [диам. гололёда 3 мм]  10/10 300 м 
[Sc]
-2.4 -3.3 94 -4  1014.2  -2  749  305           
00 10.12.10 140 (ЮВ) 10 км  слаб. снег [диам. гололёда 3 мм]  10/10 300 м 
[Ns]
-2 -2.9 94 -5  1011.6  -2.6  747  304           
03 10.12.10 170 (Ю) 4-10{11}  10 км  слаб. дождь{снег} [диам. гололёда 8 мм]  10/10 300 м 
[Ns]
-0.2 -0.8 96 -3  1009.3  -2.2  746  301           
06 10.12.10 150 (ЮВ) 2000 м  дымка{дождь} [диам. гололёда 3 мм]  10/10 100 м 
[St]
+0.6 +0.6 100 -1  1008.6  -0.7  745  300  -2.5       
09 10.12.10 170 (Ю) 2{10}  4000 м  дымка{морось}  10/10 100 м 
[St]
+1.5 +0.7 94 +1  1008.3  -0.1  745  298           
12 10.12.10 160 (Ю) 10 км  {морось}  10/10 100 м 
[St]
+1.2 +0.4 94 1008.4  -0.1  745  299           
15 10.12.10 140 (ЮВ) 10 км    10/10 300 м 
[St]
+0.8 -0.9 88 -2  1007.7  -0.6  745  299           
18 10.12.10 160 (Ю) 5-10{11}  10 км    10/10 600 м 
[Sc]
+0.6 -3 77 -2  1007.1  -0.6  744  300    +1.6  0.4     
21 10.12.10 170 (Ю) 5-10{11}  10 км    10/10 600 м 
[Sc]
+0.6 -3 77 -2  1007.6  0.4  745  300           
00 11.12.10 170 (Ю) 5-10{11}  10 км    10/10 600 м 
[Sc]
+0.3 -3.5 76 -3  1007.5  -0.1  744  300           
03 11.12.10 170 (Ю) 6-10{12}  10 км    10/0 средняя 
[Ac As]
+0.4 -2.7 80 -3  1006.8  -0.6  744  300           
06 11.12.10 170 (Ю) 4-11{11}  10 км    10/0 средняя 
[As op]
-1 -2.9 87 -4  1008.1  1.1  745  302  -1         
09 11.12.10 170 (Ю) 5{11}  10 км    10/10 200 м 
[St]
-0.2 -1.7 90 -3  1008.2  0.2  745  301           
12 11.12.10 180 (Ю) 10 км    10/10 200 м 
[St]
+0.4 -0.5 94 1009.6  1.4  746  300           
15 11.12.10 180 (Ю) 4000 м  слаб. морось  10/10 200 м 
[St]
+1 +0.7 98 1010.1  0.5  746  300           
18 11.12.10 200 (Ю) 10 км  в посл. час морось  10/10 300 м 
[St]
+1 +0.2 94 1011.8  1.7  748  300    +1  0.1     
21 11.12.10 160 (Ю) 4000 м  слаб. морось  10/10 300 м 
[St]
+0.4 -0.2 96 +1  1013.6  1.8  749  301           
00 12.12.10 170 (Ю) 4000 м  {морось}  10/10 200 м 
[St]
+0.1 -0.8 94 +1  1015.5  1.9  750  302           
03 12.12.10 130 (ЮВ) 4000 м    10/10 200 м 
[St]
-0.7 -1.4 95 1016.1  0.5  751  303           
06 12.12.10 140 (ЮВ) 10 км    10/10 600 м 
[Sc]
-1.2 -2.5 91 -2  1017  0.9  752  304  -0.7    0.2     
09 12.12.10 160 (Ю) >10 км    10/3 600 м средняя 
[Sc|Ac As]
-3.2 -5.6 83 -4  1017.3  0.1  752  307           
12 12.12.10 120 (ЮВ) >10 км    10/0 средняя, верхняя 
[Ac lent|Ci fib]
-4.4 -8.3 74 -6  1017.8  0.4  752  309           
15 12.12.10 130 (ЮВ) 10 км    10/0 верхняя 
[Ci fib]
-4.8 -9.2 71 -6  1017.6  -0.2  752  309           
18 12.12.10 110 (В) 10 км    10/0 верхняя 
[Ci fib]
-5.4 -9.2 75 -7  1017.6  752  310    -0.7       
21 12.12.10 110 (В) 10 км    10/0 верхняя 
[Ci fib]
-6.6 -10.3 75 -8  1017.3  -0.4  751  311           
00 13.12.10 110 (В) 10 км    10/0 верхняя 
[Ci fib]
-7.2 -11.1 74 -9  1017.3  751  312           
03 13.12.10 110 (В) 10 км    10/0 верхняя 
[Ci fib]
-8 -12.6 70 -11  1017.7  0.4  752  313           
06 13.12.10 090 (В) >10 км    4/0 верхняя 
[Ci fib]
-8 -13.6 64 -10  1017.8  0.1  752  313  -8.5         
09 13.12.10 100 (В) >10 км    ясно 
-5.6 -14.4 50 -7  1017.7  752  311           
12 13.12.10 090 (В) >10 км    ясно 
-4.2 -14.9 43 -5  1017  -0.6  751  309           
15 13.12.10 070 (В) 10 км    ясно 
-4.8 -15.5 43 -4  1016.6  -0.5  751  309           
18 13.12.10 090 (В) 10 км    ясно 
-5.2 -16.3 41 -8  1016.3  -0.3  751  310    -4.2       
21 13.12.10 100 (В) 10 км    ясно 
-9.3 -14.9 64 -9  1015.4  -1.1  750  314           
00 14.12.10 080 (В) 10 км    ясно 
-7.8 -15.7 53 -8  1014.6  -0.7  749  312           
03 14.12.10 090 (В) 10 км    6/0 
[Sc]
-7.5 -14.6 57 -10  1013.5  -1.1  749  311           
06 14.12.10 050 (СВ) >10 км  {снег}  8/0 средняя 
[Ac lent]
-7.2 -13 63 -9  1013.3  -0.2  748  311  -9.6         
09 14.12.10 100 (В) >10 км  слаб. снег  10/10 300 м 
[Sc]
-6.4 -9.2 80 -8  1013.2  -0.1  748  310           
12 14.12.10 060 (СВ) >10 км  слаб. снег  10/10 600 м 
[Sc]
-5.4 -7.2 87 -5  1013.1  748  308           
15 14.12.10 080 (В) 4000 м  снежные зёрна  10/10 200 м 
[St]
-4.6 -5.9 91 -6  1012  -1  748  307           
18 14.12.10 100 (В) 4000 м  снежные зёрна{морось} [диам. гололёда 1 мм]  10/10 200 м 
[St]
-3.1 -3.8 95 -4  1012.4  0.5  748  305    -4.6  0.5     
21 14.12.10 110 (В) 2000 м  снежные зёрна{морось} [диам. гололёда 1 мм]  10/10 200 м 
[St]
-2.4 -2.7 98 -2  1012  -0.3  748  304           
00 15.12.10 тихо ()   4000 м  снежные зёрна{морось} [диам. гололёда 1 мм]  10/10 200 м 
[St]
-1.8 -2 99 -2  1011.6  -0.4  747  303           
03 15.12.10 тихо ()   4000 м  снежные зёрна{морось} [диам. гололёда 2 мм]  10/10 200 м 
[St]
-2.6 -2.9 98 -3  1011.5  -0.2  747  304           
06 15.12.10 тихо ()   2000 м  снежные зёрна{морось} [диам. гололёда 3 мм]  10/10 200 м 
[St]
-4.6 -5.2 96 -5  1011.6  747  307  -4.6       
09 15.12.10 280 (З) 2000 м  снежные зёрна [диам. гололёда 3 мм]  10/10 200 м 
[St]
-4.8 -5.8 93 -4  1012.4  0.8  748  307           
12 15.12.10 270 (З) 4000 м  снежные зёрна [диам. гололёда 3 мм]  10/10 200 м 
[St]
-5.8 -7.6 87 -5  1012.8  0.3  748  309           
15 15.12.10 270 (З) 4000 м  снежные зёрна [диам. гололёда 3 мм]  10/10 200 м 
[St]
-6 -8.3 84 -7  1013.1  0.3  748  309           
18 15.12.10 тихо ()   4000 м  снежные зёрна [диам. гололёда 3 мм]  10/10 200 м 
[St]
-5.5 -6.9 90 -6  1013  -0.1  748  308    -2.6  0.5     
21 15.12.10 тихо ()   4000 м  снежные зёрна [диам. гололёда 2 мм]  10/10 200 м 
[St]
-5.3 -6.7 90 -5  1013  748  308           
00 16.12.10 140 (ЮВ) 4000 м  снежные зёрна [диам. гололёда 2 мм]  10/10 200 м 
[St]
-4 -4.9 93 -4  1011.2  -1.6  747  306           
03 16.12.10 180 (Ю) 4000 м  слаб. снег [диам. гололёда 2 мм]  10/10 200 м 
[Ns]
-3.2 -3.6 97 -3  1009.8  -1.4  746  305           
06 16.12.10 230 (ЮЗ) 2000 м  слаб. снег [диам. гололёда 2 мм]  10/10 200 м 
[Ns]
-2.6 -2.9 98 -2  1009.5  -0.3  746  304  -6    0.6     
09 16.12.10 250 (З) 10 км  слаб. снег [диам. гололёда 1 мм]  10/0 средняя 
[Ac As]
-6.6 -10.3 75 -9  1012.1  2.4  748  310           
12 16.12.10 250 (З) >10 км  {снег}  9/9 600 м средняя 
[Sc|Ac cast]
-8.2 -12.4 72 -11  1013.9  1.7  749  312           
15 16.12.10 260 (З) 10 км    10/10 600 м 
[Sc]
-9 -12.9 73 -11  1015.8  1.8  750  314           
18 16.12.10 250 (З) 10 км  слаб. снег  9/9 600 м 
[Sc]
-9 -12.4 76 -11  1016.3  0.5  751  314    -2.6  0.8     
21 16.12.10 тихо ()   10 км  слаб. снег  10/10 300 м 
[Sc]
-9 -11.5 82 -9  1016  -0.3  750  314           
00 17.12.10 110 (В) 4000 м  снег  10/10 300 м 
[Ns]
-7.3 -9.4 85 -7  1015.1  -0.8  750  311           
03 17.12.10 050 (СВ) 2000 м  снег  10/10 300 м 
[Ns]
-7.6 -9.4 87 -7  1013.7  -1.4  749  311           
06 17.12.10 тихо ()   4000 м  слаб. снег  9/0 средняя 
[As trans]
-8.2 -10.1 86 -8  1014.4  0.7  749  312  -9       
09 17.12.10 300 (СЗ) >10 км  слаб. снег  10/0 средняя 
[As op]
-8.6 -10.5 86 -8  1016.7  2.2  751  313           
12 17.12.10 300 (СЗ) >10 км  {снег}  9/9 600 м 
[Sc]
-8.8 -10.7 86 -9  1018.1  1.3  752  314           
15 17.12.10 340 (С) 10 км  слаб. снег  10/10 600 м 
[Sc]
-8.9 -11.8 79 -11  1020.1  753  315           
18 17.12.10 340 (С) 10 км  слаб. снег  10/10 600 м 
[Sc]
-9.8 -12.4 81 -10  1021.4  1.3  754  316    -7.6  0.6     
21 17.12.10 260 (З) 10 км  слаб. снег  10/10 600 м 
[Sc]
-10.3 -12.3 85 -10  1022.9  1.4  755  317           
00 18.12.10 200 (Ю) 10 км  слаб. снег  10/10 600 м 
[Sc]
-10.5 -12.5 85 -10  1024.1  1.1  756  318           
03 18.12.10 060 (СВ) 10 км  {снег}  10/10 600 м 
[Sc]
-11.6 -13.6 85 -11  1024.8  0.7  757  320           
06 18.12.10 080 (В) 10 км  слаб. снег  10/10 200 м 
[St]
-15 -17 85 -17  1025.1  0.1  757  324  -15    0.3     
09 18.12.10 030 (СВ) >10 км  {снег}  ясно 
-15.7 -17.6 86 -18  1025.6  0.5  757  325           
12 18.12.10 110 (В) >10 км  {снег}  ясно 
-17.4 -19.3 85 -20  1026.2  0.5  758  328           
15 18.12.10 070 (В) 10 км    3/0 средняя 
[Ac cast]
-18.3 -20.2 85 -22  1026.3  -0.1  758  329           
18 18.12.10 070 (В) 10 км    ясно 
-17.3 -19.9 80 -20  1026.3  0.2  758  328    -11.6  0.0     
21 18.12.10 070 (В) 10 км    ясно 
-16.3 -18.2 85 -20  1027.2  0.9  758  326           
00 19.12.10 070 (В) 10 км    ясно 
-18.2 -20.8 80 -22  1027.7  0.3  759  329           
03 19.12.10 070 (В) 10 км    ясно 
-18.9 -22.2 75 -22  1028.2  0.5  759  330           
06 19.12.10 090 (В) 10 км    10/0 верхняя 
[Ci fib]
-18.7 -22 75 -21  1028.5  0.3  759  330  -19.1         
09 19.12.10 070 (В) >10 км    5/0 верхняя 
[Ci fib]
-19.1 -23.2 70 -22  1029  0.4  759  331           
12 19.12.10 060 (СВ) >10 км    5/0 верхняя 
[Ci fib]
-19.5 -23.6 69 -24  1029.1  0.1  760  331           
15 19.12.10 080 (В) 10 км    ясно 
-20.5 -23.8 75 -23  1029.9  0.7  760  333           
18 19.12.10 100 (В) 10 км    6/0 
-21.3 -24.6 75 -24  1029.8  -0.1  760  334    -18.7       
21 19.12.10 130 (ЮВ) 10 км    3/0 средняя 
[Ac lent]
-21.5 -24.7 75 -22  1030.5  0.7  761  334           
00 20.12.10 110 (В) 10 км  слаб. снег  10/10 600 м 
[Sc]
-20.2 -23.5 75 -25  1029.5  -0.9  760  332           
03 20.12.10 120 (ЮВ) 10 км  {снег}  8/0 верхняя 
[Ci fib]
-21.3 -24.6 75 -26  1028.2  -1.3  759  333           
06 20.12.10 110 (В) >10 км  {снег}  9/0 средняя 
[Ac As]
-18.6 -21.2 80 -23  1026.7  -1.4  758  329  -21.5    0.0     
09 20.12.10 120 (ЮВ) >10 км  слаб. снег  10/0 средняя 
[As trans]
-17.5 -20.9 75 -21  1025.4  -1.1  757  327           
12 20.12.10 100 (В) 4000 м  слаб. снег  10/10 300 м 
[Ns]
-16.1 -18.7 80 -20  1024.3  -1  756  325           
15 20.12.10 120 (ЮВ) 4000 м  слаб. снег  10/0 средняя 
[As op]
-15.7 -18.4 80 -19  1023.7  -0.6  756  325           
18 20.12.10 150 (ЮВ) 4000 м  слаб. снег  10/10 300 м 
[Ns]
-14.3 -17 80 -14  1024  0.3  756  323    -15.7     
21 20.12.10 140 (ЮВ) 4000 м  слаб. снег  10/10 300 м 
[Ns]
-13.1 -15.8 80 -15  1024.6  0.7  757  322           
00 21.12.10 150 (ЮВ) 4000 м  слаб. снег  10/10 300 м 
[Ns]
-11.9 -13.9 85 -14  1025.6  1.1  757  320           
03 21.12.10 140 (ЮВ) 10 км  {снег}  9/0 средняя 
[Ac trans]
-11.7 -13 90 -14  1025.4  -0.2  757  320           
06 21.12.10 140 (ЮВ) >10 км  {снег}  10/10 1000 м 
[Sc]
-10 -11.7 87 -13  1024.9  -0.4  757  318  -15.7    0.6     
09 21.12.10 160 (Ю) 4{10}  >10 км  позёмок  10/10 300 м 
[Sc]
-7.8 -10 84 -11  1023  -1.7  756  314           
12 21.12.10 160 (Ю) 5-10{12}  4000 м  слаб. снег  10/10 200 м 
[Ns]
-6.2 -8.5 84 -10  1020  -2.8  754  312           
15 21.12.10 170 (Ю) 4-10{12}  2000 м  снег  10/10 200 м 
[Ns]
-5.2 -6.6 90 -8  1016.6  -3.4  751  309           
18 21.12.10 190 (Ю) 3-10{12}  2000 м  снег  10/10 200 м 
[Ns]
-3.7 -4.8 92 -6  1013.6  -2.9  749  306    -5.2     
21 21.12.10 240 (ЮЗ) 10 км  {снег}  10/10 200 м 
[Ns]
-1.2 -3.2 86 -2  1012.4  -1  748  303           
00 22.12.10 290 (З) 4-10{12}  10 км  {снег}  10/10 600 м 
[Sc]
-0.6 -4.7 74 -3  1013.7  1.3  749  303           
03 22.12.10 300 (СЗ) 2{12}  10 км    10/10 600 м 
[Sc]
-3.5 -10 61 -5  1015.8  1.9  750  307           
06 22.12.10 300 (СЗ) 4{11}  10 км  слаб. снег{дождь}  10/8 600 м средняя 
[Sc|Ac cast]
-6.2 -11.1 68 -10  1017.6  1.7  752  311  -6.2       
09 22.12.10 270 (З) 6-11{13}  >10 км  {снег}  4/0 средняя 
[Ac lent]
-7.4 -12.8 65 -12  1019.5  1.7  753  313           
12 22.12.10 280 (З) 3{13}  >10 км  слаб. снег  10/8 600 м средняя 
[Sc|Ac cast]
-8.2 -12.8 69 -11  1021.1  1.5  754  314           
15 22.12.10 300 (СЗ) 10 км  слаб. снег  10/10 600 м 
[Sc]
-7.8 -12.3 70 -11  1021.5  0.5  755  314           
18 22.12.10 300 (СЗ) 10 км  {снег}  10/10 600 м 
[Sc]
-8.4 -12.1 74 -11  1021.7  0.1  755  315    -3.5  0.0     
21 22.12.10 280 (З) 10 км    10/10 600 м 
[Sc]
-9 -12.4 76 -9  1022.3  0.6  755  316           
00 23.12.10 290 (З) 10 км  слаб. снег  10/10 600 м 
[Sc]
-9.8 -12.9 78 -10  1021.4  -0.9  754  316           
03 23.12.10 240 (ЮЗ) 10 км  слаб. снег  10/10 600 м 
[Sc]
-10.1 -12.7 81 -10  1021.3  -0.1  754  317           
06 23.12.10 тихо ()   10 км  слаб. снег  10/10 300 м 
[Ns]
-10.2 -12.2 85 -10  1020.9  -0.4  754  317  -10.2    0.0     
09 23.12.10 тихо ()   10 км  слаб. снег  10/10 300 м 
[Ns]
-9.8 -11.9 85 -10  1020.5  -0.4  754  316           
12 23.12.10 180 (Ю) 10 км  {снег}  9/0 средняя 
[Ac trans]
-10 -12.2 84 -10  1020  -0.5  753  316           
15 23.12.10 280 (З) 10 км    9/0 средняя 
[Ac trans]
-11 -13 85 -11  1020.6  0.5  754  318           
18 23.12.10 тихо ()   10 км    10/6 600 м средняя 
[Sc|Ac cast]
-11 -13 85 -11  1020.7  0.1  754  318    -9.7  0.0     
21 23.12.10 280 (З) 10 км  слаб. снег  10/10 600 м 
[Sc]
-10.4 -12.4 85 -12  1021.7  755  317           
00 24.12.10 320 (СЗ) 10 км  слаб. снег  10/10 600 м 
[Sc]
-10.6 -12.6 85 -12  1023.4  1.6  756  318           
03 24.12.10 280 (З) 10 км  слаб. снег  10/9 600 м 
[Sc]
-10.8 -13.6 80 -11  1024.8  1.4  757  319           
06 24.12.10 250 (З) >10 км  слаб. снег  10/10 600 м 
[Sc|As trans]
-12.1 -14.1 85 -12  1026.8  758  321  -12.1    0.2     
09 24.12.10 280 (З) >10 км  слаб. снег  10/0 средняя 
[As trans]
-12.3 -14.3 85 -12  1027.8  0.9  759  322           
12 24.12.10 тихо ()   >10 км  слаб. снег  10/0 средняя 
[As trans]
-12.5 -14.5 85 -13  1028.2  0.4  759  322           
15 24.12.10 140 (ЮВ) 10 км    10/0 средняя 
[Ac As]
-13.8 -15.8 85 -14  1028.1  -0.1  759  324           
18 24.12.10 140 (ЮВ) 10 км    10/0 средняя 
[As trans]
-13.5 -15.5 85 -13  1026.4  -1.7  758  323    -10.8  0.0     
21 24.12.10 140 (ЮВ) 4000 м  снег  10/10 300 м 
[Ns]
-12.6 -14.6 85 -13  1025.7  -0.7  757  321           
00 25.12.10 110 (В) 4000 м  снег  10/10 300 м 
[Ns]
-12.3 -14.3 85 -14  1024.2  -1.5  756  320           
03 25.12.10 100 (В) 2000 м  снег  10/10 300 м 
[Ns]
-11.5 -13.5 85 -13  1022  -2  755  319           
06 25.12.10 100 (В) 2000 м  снег  10/10 300 м 
[Ns]
-11 -13 85 -13  1021.7  -0.3  755  318  -13.8       
09 25.12.10 100 (В) 10 км  слаб. снег  10/10 300 м 
[Ns]
-9.8 -11.5 87 -10  1019.7  -1.9  753  316           
12 25.12.10 100 (В) 10 км  слаб. снег  10/10 300 м 
[Sc]
-9.2 -10.8 88 -9  1018.5  -1.2  752  315           
15 25.12.10 080 (В) 10 км  слаб. снег  10/10 300 м 
[Sc]
-9.4 -10.6 91 -11  1018.7  0.2  752  315           
18 25.12.10 060 (СВ) 10 км  слаб. снег  10/10 600 м 
[Sc]
-9.2 -11.2 85 -11  1018.6  -0.1  752  315    -9.2     
21 25.12.10 070 (В) 4000 м  снег  10/10 300 м 
[Ns]
-9.4 -11.5 85 -11  1019.5  0.9  753  315           
00 26.12.10 070 (В) 4000 м  снег  10/10 300 м 
[Ns]
-10.4 -12.4 85 -12  1021  1.4  754  317           
03 26.12.10 070 (В) 2000 м  снег  10/10 300 м 
[Ns]
-10.4 -12.4 85 -12  1021.9  0.9  755  317           
06 26.12.10 090 (В) 1000 м  сильн. снег  10/10 300 м 
[Ns]
-10.4 -12.2 87 -13  1022  0.1  755  317  -10.4       
09 26.12.10 080 (В) 4-11  1000 м  сильн. снег  10/10 300 м 
[Ns]
-10.1 -12.1 85 -14  1023.7  1.7  756  317           
12 26.12.10 080 (В) 4{10}  4000 м  слаб. снег  10/10 200 м 
[Ns]
-8.5 -10.8 84 -12  1023.5  -0.2  756  315           
15 26.12.10 110 (В) 5-10{12}  2000 м  снег  10/10 200 м 
[Ns]
-8.6 -10.5 86 -13  1024.3  0.8  756  316           
18 26.12.10 090 (В) 5{10}  1000 м  сильн. снег  10/10 200 м 
[Ns]
-9.6 -11.2 88 -14  1023.7  -0.6  756  317    -8.5     
21 26.12.10 080 (В) 4{12}  1000 м  сильн. снег  10/10 200 м 
[Ns]
-9.6 -11.2 88 -14  1022.9  -0.7  755  317           
00 27.12.10 110 (В) 4{11}  1000 м  сильн. снег  10/10 200 м 
[Ns]
-10.2 -12.2 85 -14  1021.4  -1.5  754  317           
03 27.12.10 100 (В) 4000 м  слаб. снег  10/10 200 м 
[Ns]
-10.8 -12.8 85 -14  1019.7  -1.8  753  317           
06 27.12.10 090 (В) 1000 м  сильн. снег  10/10 200 м 
[Ns]
-9.8 -11.9 85 -14  1018.1  -1.5  752  315  -10.8    12     
09 27.12.10 090 (В) 1000 м  сильн. снег  10/10 200 м 
[Ns]
-7.2 -8.9 88 -10  1016.9  -1  751  312           
12 27.12.10 100 (В) 2000 м  снег  10/10 200 м 
[Ns]
-5.1 -6.5 90 -8  1016  -0.8  751  309           
15 27.12.10 080 (В) 3{10}  2000 м  снег  10/10 200 м 
[Ns]
-5.1 -6.8 88 -7  1016.1  0.1  751  309           
18 27.12.10 070 (В) 4000 м  слаб. снег  10/10 300 м 
[Ns]
-4.9 -6.2 91 -6  1016.1  0.6  751  309    -5.1  10     
21 27.12.10 060 (СВ) 10 км  {снег}  10/10 600 м 
[Sc]
-5.1 -6.5 90 -5  1017.1  0.4  751  309           
00 28.12.10 070 (В) 10 км  {снег}  10/10 600 м 
[Sc]
-6.4 -8 88 -6  1018  0.7  752  311           
03 28.12.10 040 (СВ) 10 км    10/10 600 м 
[Sc]
-8.4 -9.9 89 -10  1018.7  0.6  752  314           
06 28.12.10 050 (СВ) 10 км    10/10 600 м 
[Sc]
-7.7 -9.9 84 -9  1019.8  1.2  753  313  -8.4       
09 28.12.10 320 (СЗ) >10 км    10/10 600 м 
[Sc]
-6.9 -9.8 80 -7  1021.4  1.6  754  313           
12 28.12.10 320 (СЗ) >10 км    10/10 600 м 
[Sc]
-8.9 -11.8 79 -9  1022.9  1.4  755  316           
15 28.12.10 040 (СВ) 10 км    9/9 600 м 
[Sc]
-9.8 -12.9 78 -12  1024.8  1.8  757  318           
18 28.12.10 320 (СЗ) 10 км    10/10 300 м 
[Sc]
-10.1 -12.9 80 -10  1027.2  2.4  759  319    -6.9       
21 28.12.10 360 (С) 10 км    10/10 600 м 
[Sc]
-11 -13.8 80 -11  1028.8  1.4  760  320           
00 29.12.10 050 (СВ) 10 км    10/10 600 м 
[Sc]
-11.6 -15.1 75 -11  1031  2.2  761  322           
03 29.12.10 040 (СВ) 10 км    10/10 600 м 
[Sc]
-13 -16.5 75 -15  1032.8  1.7  763  324           
06 29.12.10 080 (В) >10 км    10/10 600 м 
[Sc]
-13.4 -16.9 75 -16  1035.2  2.3  764  325  +13.4         
09 29.12.10 080 (В) >10 км    10/10 1000 м 
[Sc]
-14.6 -18.1 74 -18  1036  0.7  765  327           
12 29.12.10 100 (В) >10 км    10/0 средняя, верхняя 
[Ac As|Ci fib]
-14.1 -17.6 75 -14  1036.5  0.6  765  327           
15 29.12.10 110 (В) 10 км    9/0 верхняя 
[Ci fib]
-14.7 -19 70 -18  1037.1  0.5  766  328           
18 29.12.10 110 (В) 10 км    10/0 верхняя 
[Cs]
-14.8 -19.1 70 -18  1037.3  0.2  766  328    -13       
21 29.12.10 110 (В) 10 км    10/0 средняя, верхняя 
[Ac cast|Ci fib]
-14.6 -18.1 74 -17  1037.6  0.3  766  328           
00 30.12.10 160 (Ю) 10 км    10/0 средняя 
[As op]
-12.6 -15.3 80 -16  1036.8  -0.7  766  325           
03 30.12.10 140 (ЮВ) 10 км  слаб. снег  10/10 300 м 
[Ns]
-10.8 -12.8 85 -15  1036  -0.6  765  322           
06 30.12.10 110 (В) 10 км  слаб. снег  10/10 300 м 
[Ns]
-9 -10.6 88 -12  1033.9  -2  764  319  -14.8    0.2     
09 30.12.10 110 (В) 10 км  слаб. снег  10/10 300 м 
[Ns]
-4.9 -6.2 91 -6  1033.2  -0.5  763  314           
12 30.12.10 160 (Ю) 10 км  {снег, морось} [диам. гололёда 1 мм]  10/10 200 м 
[St]
-2.8 -3.5 95 -6  1031.9  -1.1  762  311           
15 30.12.10 160 (Ю) 10 км  [диам. гололёда 1 мм]  10/6 300 м средняя, верхняя 
[St|Ac lent|Ci fib]
-1.2 -2.9 88 -4  1031.2  -0.6  762  309           
18 30.12.10 150 (ЮВ) 4-11{11}  10 км    10/10 600 м 
[Sc]
+0.4 -1.6 86 -2  1029.8  -1.3  761  306    -1.2     
21 30.12.10 140 (ЮВ) 4-10{10}  1000 м  снег  10/10 300 м 
[Ns]
-1.2 -1.8 96 -4  1029.5  -0.4  761  308           
00 31.12.10 150 (ЮВ) 4-11  4000 м  слаб. снег  10/10 300 м 
[Ns]
-4 -4.9 93 -7  1027.9  -1.7  759  311           
03 31.12.10 140 (ЮВ) 5-11{12}  0500 м  сильн. снег  10/10 200 м 
[Ns]
-5.2 -6.6 90 -9  1025  -2.9  757  312           
06 31.12.10 140 (ЮВ) 5-12{13}  10 км  слаб. снег  10/10 300 м 
[Ns]
-6.2 -8.9 81 -10  1024  -1  756  313  -6.2       
09 31.12.10 140 (ЮВ) 5-11{11}  0500 м  сильн. снег  ?/?  
-6.3 -7.8 89 -10  1022.4  -1.6  755  312           
12 31.12.10 150 (ЮВ) 4-10{11}  4000 м  слаб. снег  10/10 300 м 
[Ns]
-4.6 -5.9 91 -8  1021.9  -0.4  755  310           
15 31.12.10 140 (ЮВ) 4{10}  10 км  слаб. переохл. морось (гололёд){снег} [диам. гололёда 0 мм]  10/10 200 м 
[St]
-3.6 -4.7 92 -7  1021.9  0.1  755  309           
18 31.12.10 140 (ЮВ) 10 км  в посл. час переохл. осадки (гололёд){снег, морось} [диам. гололёда 1 мм]  10/10 200 м 
[St]
-3.6 -5 90 -3  1022.2  755  309    -3.6     
21 31.12.10 150 (ЮВ) 10 км  слаб. снег [диам. гололёда 1 мм]  10/10 300 м 
[Ns]
-3.7 -4.8 92 -5  1022.5  0.3  755  309           
00 01.01.11 150 (ЮВ) 10 км  слаб. снег [диам. гололёда 1 мм]  10/10 300 м 
[Ns]
-4.7 -6 91 -6  1022.9  0.2  756  310           
03 01.01.11 180 (Ю) 3{10}  10 км  слаб. снег [диам. гололёда 1 мм]  10/10 300 м 
[Ns]
-5.9 -8.1 84 -8  1022.7  -0.1  756  312           
06 01.01.11 160 (Ю) 10 км  {снег}  10/10 600 м 
[Sc]
-6.6 -9 83 -9  1022.6  -0.3  755  313  -6.6    0.8     
Время (UTC), дата Ветер
(°,м/с) 
Видим.   Явления Облачность Т
(°С)
Тd
(°С)
f(%) Тe
(°С)
Pmin
(гПа)
dP
(гПа)
Po
(мм)
O2
(г/м3)
Тmin Tmax R s Состояние
почвы